This is the latest recevied weather packets stored in our database for station/object PP5FMM-13. If no packets are shown the sender has not sent any weather packets the latest 1 day(s).
| Time | Temp. | Humidity | Pressure | Rain* | Wind** | Luminosity | Snow |
|---|---|---|---|---|---|---|---|
| 1778092535 | 30.56° C | 89% | 1015.9 hPa | - | - | - | - |
| 1778091635 | 30.56° C | 88% | 1016 hPa | - | - | - | - |
| 1778091335 | 30.56° C | 89% | 1016 hPa | - | - | - | - |
| 1778091035 | 30.56° C | 89% | 1016.2 hPa | - | - | - | - |
| 1778090135 | 30.56° C | 89% | 1016.2 hPa | - | - | - | - |
| 1778089535 | 30.56° C | 90% | 1016.3 hPa | - | - | - | - |
| 1778089235 | 30° C | 90% | 1016.2 hPa | - | - | - | - |
| 1778088935 | 30.56° C | 90% | 1016.3 hPa | - | - | - | - |
| 1778088635 | 30° C | 91% | 1016.3 hPa | - | - | - | - |
| 1778088335 | 29.44° C | 94% | 1016.4 hPa | - | - | - | - |
| 1778088035 | 30° C | 93% | 1016.5 hPa | - | - | - | - |
| 1778086535 | 30° C | 91% | 1016.6 hPa | - | - | - | - |
| 1778085935 | 30° C | 90% | 1016.8 hPa | - | - | - | - |
| 1778085635 | 29.44° C | 91% | 1016.8 hPa | - | - | - | - |
| 1778085335 | 30° C | 90% | 1016.9 hPa | - | - | - | - |
| 1778084735 | 29.44° C | 92% | 1017.2 hPa | - | - | - | - |
| 1778084435 | 28.89° C | 95% | 1017.2 hPa | - | - | - | - |
| 1778084135 | 29.44° C | 93% | 1017.3 hPa | - | - | - | - |
| 1778083835 | 29.44° C | 92% | 1017.2 hPa | - | - | - | - |
| 1778083535 | 29.44° C | 90% | 1017.3 hPa | - | - | - | - |
| 1778083235 | 29.44° C | 92% | 1017.3 hPa | - | - | - | - |
| 1778082935 | 29.44° C | 90% | 1017.4 hPa | - | - | - | - |
| 1778082635 | 29.44° C | 89% | 1017.5 hPa | - | - | - | - |
| 1778082335 | 30° C | 83% | 1017.7 hPa | - | - | - | - |
| 1778082035 | 30° C | 84% | 1017.6 hPa | - | - | - | - |
* Rain since midnight (hover to see other rain measurements)
** Current wind speed in m/s (hover to see current wind gust speed)